Cosmos 1933 Rocket - Orbit

View from above orbital plane
View from above orbital plane
View from above satellite
View from above satellite

Ground track
Ground track

The orbit data is extracted from the following two-line orbital elements,

1 18959U 88020B   13139.19690270  .00000367  00000-0  42687-4 0  9370
2 18959 082.5394 222.3464 0016934 014.2775 044.8781 14.82483006359754
Epoch (UTC): 19 May 2013 04:43:32
Eccentricity: 0.0016934
inclination: 82.5394°
perigee height: 609 km
apogee height: 633 km
right ascension of ascending node: 222.3464°
argument of perigee: 14.2775°
revolutions per day: 14.82483006
mean anomaly at epoch: 44.8781°
orbit number at epoch: 35975

The dashed part of the orbit path shows where the satellite is in the earth's shadow,  

Developed and maintained by Chris Peat, Heavens-Above GmbH. Please read the updated FAQ before sending e-mail. Imprint. DLR